Terminal Aerodrome Forecast
Issued by NWS King Salmon, AK

Home | Current Version | Previous Version | Text Only | Print | Product List | Glossary On
Versions: 1 2 3 4 5 6 7 8 9 10 11 12 13 14 15 16 17 18 19 20 21 22 23 24 25 26
000
FTAK31 PANC 010531
TAFAKN
TAF
PAKN 010531Z 0106/0206 03010KT P6SM SKC
     FM012200 04013G20KT P6SM SCT200=

USA.gov is the U.S. government's official web portal to all federal, state and local government web resources and services.